This is the latest recevied weather packets stored in our database for station/object CE3TDM-12. If no packets are shown the sender has not sent any weather packets the latest 10 day(s).
| Time | Temp. | Humidity | Pressure | Rain* | Wind** | Luminosity | Snow |
|---|---|---|---|---|---|---|---|
| 1777783716 | 11.11° C | 34% | 780 hPa | - | - | - | - |
| 1777783412 | 11.11° C | 34% | 780 hPa | - | - | - | - |
| 1777783112 | 11.11° C | 34% | 780 hPa | - | - | - | - |
| 1777782811 | 11.11° C | 34% | 779.9 hPa | - | - | - | - |
| 1777782511 | 11.11° C | 34% | 780 hPa | - | - | - | - |
| 1777782210 | 10.56° C | 34% | 780 hPa | - | - | - | - |
| 1777781910 | 10.56° C | 34% | 780 hPa | - | - | - | - |
| 1777778678 | 12.22° C | 34% | 780 hPa | - | - | - | - |
| 1777778377 | 12.22° C | 34% | 780 hPa | - | - | - | - |
| 1777778076 | 12.22° C | 34% | 780 hPa | - | - | - | - |
| 1777777772 | 12.22° C | 34% | 780 hPa | - | - | - | - |
| 1777777472 | 12.22° C | 34% | 780.1 hPa | - | - | - | - |
| 1777777171 | 12.22° C | 34% | 780.1 hPa | - | - | - | - |
| 1777776871 | 12.78° C | 34% | 780.3 hPa | - | - | - | - |
| 1777776568 | 12.78° C | 34% | 780.2 hPa | - | - | - | - |
| 1777776267 | 12.78° C | 34% | 780.3 hPa | - | - | - | - |
| 1777775966 | 12.78° C | 34% | 780.3 hPa | - | - | - | - |
| 1777775666 | 12.22° C | 34% | 780.4 hPa | - | - | - | - |
| 1777772618 | 13.33° C | 34% | 780.8 hPa | - | - | - | - |
| 1777772318 | 12.78° C | 34% | 780.7 hPa | - | - | - | - |
| 1777766917 | 15° C | 34% | 780.5 hPa | - | - | - | - |
| 1777766616 | 15° C | 34% | 780.4 hPa | - | - | - | - |
| 1777766316 | 15° C | 34% | 780.4 hPa | - | - | - | - |
| 1777766010 | 15.56° C | 34% | 780.4 hPa | - | - | - | - |
| 1777765709 | 15.56° C | 34% | 780.3 hPa | - | - | - | - |
* Rain since midnight (hover to see other rain measurements)
** Current wind speed in m/s (hover to see current wind gust speed)